Flag for Romania Weather past 2 weeks in Bucharest, Romania

Now
77 °F

Scattered clouds.


Feels Like: 79 °F
Forecast: 59 / 78 °F
Wind: 6 mph from East

Location: Bucharest / Imh

Current Time: May 25, 2015 at 6:33:48 PM

Latest Report: May 25, 2015 at 6:00 PM


Visibility: N/A

Pressure: 29.77 "Hg

Humidity: 57%

Dew point: 61 °F

Location of BucharestLocation

Historic Weather in Bucharest — Graph

°F

Bucharest temperature yesterday

Maximum temperature yesterday: 81 °F (at 2:00 PM)
Minimum temperature yesterday: 59 °F (at 5:00 AM)
Average temperature yesterday: 71 °F

Past Weeks' High & Low Weather Summary

 TemperatureHumidityPressure
High84 °F (May 19, 3:30 PM)100% (May 11, 4:00 AM)30.30 "Hg (May 11, 4:00 AM)
Low52 °F (May 12, 5:30 AM)30% (May 21, 4:00 PM)29.68 "Hg (May 14, 6:00 PM)
Average68 °F63%29.98 "Hg
* Reported May 10 5:00 PM — May 25 5:30 PM, Bucharest, Weather by CustomWeather, © 2015

Note: Actual official high and low records may vary slightly from our data, if they occured in-between our weather recording intervals... More about our weather records

Advertising

Bucharest weather history for previous 24 hours

 ConditionsComfort  
Time TempWeatherWind HumidityBarometerVisibility
5:30 PM
Mon, May 25
79 °FPassing clouds.7 mph54%29.74 "HgN/A
5:00 PM79 °FPassing clouds.6 mph51%29.74 "HgN/A
4:30 PM79 °FPassing clouds.7 mph51%29.77 "HgN/A
4:00 PM77 °FPassing clouds.7 mph54%29.77 "HgN/A
3:30 PM77 °FScattered clouds.6 mph57%29.80 "HgN/A
3:00 PM77 °FPassing clouds.8 mph54%29.80 "HgN/A
2:30 PM77 °FPassing clouds.8 mph54%29.80 "HgN/A
2:00 PM77 °FPassing clouds.10 mph54%29.80 "HgN/A
1:30 PM77 °FPassing clouds.9 mph51%29.80 "HgN/A
1:00 PM75 °FPassing clouds.10 mph57%29.80 "HgN/A
12:30 PM75 °FPassing clouds.14 mph57%29.83 "HgN/A
12:00 PM73 °FPassing clouds.12 mph65%29.83 "HgN/A
11:30 AM73 °FPassing clouds.14 mph65%29.83 "HgN/A
11:00 AM72 °FPartly sunny.13 mph69%29.83 "HgN/A
10:30 AM72 °FPartly sunny.14 mph69%29.83 "HgN/A
10:00 AM70 °FPartly sunny.15 mph73%29.83 "HgN/A
9:30 AM70 °FScattered clouds.16 mph73%29.83 "HgN/A
9:00 AM68 °FPassing clouds.14 mph78%29.83 "HgN/A
8:30 AM66 °FPassing clouds.16 mph83%29.83 "HgN/A
8:00 AM64 °FPassing clouds.10 mph88%29.83 "HgN/A
7:30 AM63 °FSunny.10 mph88%29.83 "Hg10 mi
7:00 AM63 °FSunny.7 mph88%29.80 "Hg10 mi
6:30 AM61 °FClear.8 mph94%29.80 "Hg10 mi
6:00 AM61 °FClear.8 mph88%29.80 "Hg10 mi
5:30 AM61 °FPassing clouds.6 mph88%29.80 "HgN/A
5:00 AM63 °FPassing clouds.7 mph88%29.77 "HgN/A
4:30 AM63 °FPassing clouds.7 mph88%29.77 "HgN/A
4:00 AM63 °FPassing clouds.10 mph88%29.80 "HgN/A
3:30 AM63 °FSprinkles. Passing clouds.6 mph83%29.83 "HgN/A
3:00 AM61 °FClear.3 mph88%29.83 "Hg10 mi
2:30 AM61 °FCool.5 mph88%29.80 "HgN/A
2:00 AM63 °FClear.6 mph83%29.80 "Hg10 mi
1:30 AM64 °FClear.5 mph78%29.80 "Hg10 mi
1:00 AM64 °FClear.7 mph78%29.80 "Hg10 mi
12:30 AM66 °FPassing clouds.3 mph73%29.80 "HgN/A
12:00 AM66 °FClear.6 mph73%29.80 "Hg10 mi
11:30 PM
Sun, May 24
68 °FClear.7 mph69%29.80 "Hg10 mi
11:00 PM70 °FClear.8 mph64%29.80 "Hg10 mi
10:30 PM70 °FClear.7 mph64%29.80 "Hg10 mi
10:00 PM68 °FClear.6 mph69%29.80 "Hg10 mi
9:30 PM70 °FSunny.6 mph64%29.77 "Hg10 mi
9:00 PM72 °FSunny.7 mph61%29.77 "Hg10 mi
8:30 PM75 °FSunny.8 mph54%29.77 "Hg10 mi
8:00 PM77 °FSunny.8 mph51%29.77 "Hg10 mi
7:30 PM79 °FSunny.12 mph45%29.77 "Hg10 mi
7:00 PM81 °FSunny.13 mph45%29.77 "Hg10 mi
6:30 PM81 °FSunny.10 mph45%29.77 "Hg10 mi
6:00 PM81 °FPassing clouds.12 mph45%29.80 "HgN/A
Weather by CustomWeather, © 2015

See weather overviewHow to use our weather pages